Location: Krakow
(50.0830°N, 19.9170°E)
Time: 06:54:48
(UTC+02:00)

A-11 Canister half - Pass Details

Date: 16 March 2026
Orbit: 1523 x 1684 km, 47.3° (Epoch: 18 April)

Event Time Altitude Azimuth Distance (km) Brightness Sun altitude
Rises 16:58:00 0° 285° (WNW) 4,737 12.9 6.9°
Reaches altitude 10° 17:03:17 10° 261° (W) 3,720 14.4 6.1°
Maximum altitude 17:07:10 13° 236° (SW) 3,440 12.2 5.5°
Drops below altitude 10° 17:11:02 10° 210° (SSW) 3,686 11.6 4.9°
Sets 17:16:15 0° 186° (S) 4,657 11.7 4.0°
